Volver al catálogo

CZ-4 DEB

ActivoSSO
NORAD 27678·DEBRIS·🇨🇳 China

Lanzado Oct 14, 1999 desde Taiyuan Satellite Launch Center

Loading…

Próximos Pases (próximas 24 horas)

TLE

ActualizadoSource: Space-Track

Época: Sep 14, 2026, 08:56 UTC

1 27678U 99057MS  26257.37232936  .00000106  00000-0  51221-4 0  9999
2 27678  98.8288 299.4395 0107712 118.3383 307.9219 14.33941543269893

Sigue CZ-4 DEB en tiempo real con AllMySat

Download on the App Store